Location: Kott?ru
(16.6209°N, 80.6208°E)
Time: 17:05:15
(UTC+00:00)

GPS 2-04 Rocket1 - Pass Details

Date: 18 September 2020
Orbit: 418 x 547 km, 35.6° (Epoch: 20 October)

Event Time Altitude Azimuth Distance (km) Brightness Sun altitude
Rises 13:24:10 0° 318° (NW) 2,697 7.1 -12.2°
Reaches altitude 10° 13:26:49 10° 334° (NNW) 1,799 5.9 -12.8°
Maximum altitude 13:30:07 22° 26° (NNE) 1,188 4.3 -13.6°
Enters shadow 13:31:47 18° 60° (ENE) 1,364 4.4 -14.0°
